Time,TemperatureF,DewpointF,PressureIn,WindDirection,WindDirectionDegrees,WindSpeedMPH,WindSpeedGustMPH,Humidity,HourlyPrecipIn,Conditions,Clouds,dailyrainin,SolarRadiationWatts/m^2,SoftwareType,DateUTC
2013-07-13 00:02:00,66.0,66.0,-100.00,NE,38,6.0,14.0,100,0.04,,,0.15,0.000000,,2013-07-13 04:02:00,
2013-07-13 00:32:00,65.0,65.0,-100.00,ENE,60,8.0,16.0,100,0.07,,,0.22,0.000000,,2013-07-13 04:32:00,
2013-07-13 00:44:00,65.0,65.0,-100.00,ENE,60,8.0,16.0,100,0.07,,,0.22,0.000000,,2013-07-13 04:44:00,
2013-07-13 00:52:00,65.0,65.0,-100.00,ENE,60,8.0,16.0,100,0.07,,,0.22,0.000000,,2013-07-13 04:52:00,
2013-07-13 01:01:00,65.0,65.0,-100.00,ENE,60,8.0,16.0,100,0.07,,,0.22,0.000000,,2013-07-13 05:01:00,
2013-07-13 01:42:00,65.0,65.0,-100.00,NE,41,9.0,16.0,100,0.04,,,0.26,0.000000,,2013-07-13 05:42:00,
2013-07-13 01:52:00,65.0,65.0,-100.00,NE,41,9.0,16.0,100,0.04,,,0.26,0.000000,,2013-07-13 05:52:00,
2013-07-13 02:02:00,65.0,65.0,-100.00,NE,41,9.0,16.0,100,0.04,,,0.26,0.000000,,2013-07-13 06:02:00,
2013-07-13 02:43:00,65.0,65.0,-100.00,NE,51,7.0,16.0,100,0.02,,,0.28,0.000000,,2013-07-13 06:43:00,
2013-07-13 02:52:00,65.0,65.0,-100.00,NE,51,7.0,16.0,100,0.02,,,0.28,0.000000,,2013-07-13 06:52:00,
2013-07-13 03:02:00,65.0,65.0,-100.00,NE,51,7.0,16.0,100,0.02,,,0.28,0.000000,,2013-07-13 07:02:00,
2013-07-13 03:33:00,65.0,65.0,-100.00,ENE,68,7.0,13.0,100,0.03,,,0.31,0.000000,,2013-07-13 07:33:00,
2013-07-13 03:44:00,65.0,65.0,-100.00,ENE,68,7.0,13.0,100,0.03,,,0.31,0.000000,,2013-07-13 07:44:00,
2013-07-13 03:53:00,65.0,65.0,-100.00,ENE,68,7.0,13.0,100,0.03,,,0.31,0.000000,,2013-07-13 07:53:00,
2013-07-13 04:02:00,65.0,65.0,-100.00,ENE,68,7.0,13.0,100,0.03,,,0.31,0.000000,,2013-07-13 08:02:00,
2013-07-13 04:33:00,64.0,64.0,-100.00,ENE,70,6.0,14.0,100,0.07,,,0.38,0.000000,,2013-07-13 08:33:00,
2013-07-13 04:43:00,64.0,64.0,-100.00,ENE,70,6.0,14.0,100,0.07,,,0.38,0.000000,,2013-07-13 08:43:00,
2013-07-13 04:52:00,64.0,64.0,-100.00,ENE,70,6.0,14.0,100,0.07,,,0.38,0.000000,,2013-07-13 08:52:00,
2013-07-13 05:02:00,64.0,64.0,-100.00,ENE,70,6.0,14.0,100,0.07,,,0.38,0.000000,,2013-07-13 09:02:00,
2013-07-13 05:33:00,64.0,64.0,-100.00,East,88,2.0,10.0,100,0.03,,,0.41,0.000000,,2013-07-13 09:33:00,
2013-07-13 05:43:00,64.0,64.0,-100.00,East,88,2.0,10.0,100,0.03,,,0.41,0.000000,,2013-07-13 09:43:00,
2013-07-13 05:53:00,64.0,64.0,-100.00,East,88,2.0,10.0,100,0.03,,,0.41,0.000000,,2013-07-13 09:53:00,
2013-07-13 06:01:00,64.0,64.0,-100.00,East,88,2.0,10.0,100,0.03,,,0.41,0.000000,,2013-07-13 10:01:00,
2013-07-13 06:32:00,65.0,65.0,-100.00,ESE,102,4.0,12.0,100,0.01,,,0.42,1.000000,,2013-07-13 10:32:00,
2013-07-13 06:43:00,65.0,65.0,-100.00,ESE,102,4.0,12.0,100,0.01,,,0.42,1.000000,,2013-07-13 10:43:00,
2013-07-13 06:52:00,65.0,65.0,-100.00,ESE,102,4.0,12.0,100,0.01,,,0.42,1.000000,,2013-07-13 10:52:00,
2013-07-13 07:02:00,65.0,65.0,-100.00,ESE,102,4.0,12.0,100,0.01,,,0.42,1.000000,,2013-07-13 11:02:00,
2013-07-13 07:32:00,65.0,65.0,-100.00,ESE,117,6.0,13.0,100,0.01,,,0.43,12.000000,,2013-07-13 11:32:00,
2013-07-13 07:43:00,65.0,65.0,-100.00,ESE,117,6.0,13.0,100,0.01,,,0.43,12.000000,,2013-07-13 11:43:00,
2013-07-13 07:52:00,65.0,65.0,-100.00,ESE,117,6.0,13.0,100,0.01,,,0.43,12.000000,,2013-07-13 11:52:00,
2013-07-13 08:02:00,65.0,65.0,-100.00,ESE,117,6.0,13.0,100,0.01,,,0.43,12.000000,,2013-07-13 12:02:00,
2013-07-13 08:32:00,66.0,66.0,-100.00,SE,126,6.0,12.0,100,0.01,,,0.44,34.000000,,2013-07-13 12:32:00,
2013-07-13 08:43:00,66.0,66.0,-100.00,SE,126,6.0,12.0,100,0.01,,,0.44,34.000000,,2013-07-13 12:43:00,
2013-07-13 08:52:00,66.0,66.0,-100.00,SE,126,6.0,12.0,100,0.01,,,0.44,34.000000,,2013-07-13 12:52:00,
2013-07-13 09:01:00,66.0,66.0,-100.00,SE,126,6.0,12.0,100,0.01,,,0.44,34.000000,,2013-07-13 13:01:00,
2013-07-13 09:43:00,66.0,66.0,-100.00,SSE,152,4.0,12.0,100,0.01,,,0.45,53.000000,,2013-07-13 13:43:00,
2013-07-13 09:53:00,66.0,66.0,-100.00,SSE,152,4.0,12.0,100,0.01,,,0.45,53.000000,,2013-07-13 13:53:00,
2013-07-13 10:02:00,66.0,66.0,-100.00,SSE,152,4.0,12.0,100,0.01,,,0.45,53.000000,,2013-07-13 14:02:00,
2013-07-13 10:33:00,67.0,67.0,-100.00,SSE,167,6.0,12.0,100,0.04,,,0.49,62.000000,,2013-07-13 14:33:00,
2013-07-13 10:44:00,67.0,67.0,-100.00,SSE,167,6.0,12.0,100,0.04,,,0.49,62.000000,,2013-07-13 14:44:00,
2013-07-13 10:53:00,67.0,67.0,-100.00,SSE,167,6.0,12.0,100,0.04,,,0.49,62.000000,,2013-07-13 14:53:00,
2013-07-13 11:02:00,67.0,67.0,-100.00,SSE,167,6.0,12.0,100,0.04,,,0.49,62.000000,,2013-07-13 15:02:00,
2013-07-13 11:33:00,67.0,67.0,-100.00,SSE,164,7.0,15.0,100,0.01,,,0.50,83.000000,,2013-07-13 15:33:00,
2013-07-13 11:43:00,67.0,67.0,-100.00,SSE,164,7.0,15.0,100,0.01,,,0.50,83.000000,,2013-07-13 15:43:00,
2013-07-13 11:53:00,67.0,67.0,-100.00,SSE,164,7.0,15.0,100,0.01,,,0.50,83.000000,,2013-07-13 15:53:00,
2013-07-13 12:02:00,67.0,67.0,-100.00,SSE,164,7.0,15.0,100,0.01,,,0.50,83.000000,,2013-07-13 16:02:00,
2013-07-13 12:33:00,68.0,68.0,-100.00,South,180,7.0,13.0,100,0.00,,,0.50,107.000000,,2013-07-13 16:33:00,
2013-07-13 12:43:00,68.0,68.0,-100.00,South,180,7.0,13.0,100,0.00,,,0.50,107.000000,,2013-07-13 16:43:00,
2013-07-13 12:53:00,68.0,68.0,-100.00,South,180,7.0,13.0,100,0.00,,,0.50,107.000000,,2013-07-13 16:53:00,
2013-07-13 13:01:00,68.0,68.0,-100.00,South,180,7.0,13.0,100,0.00,,,0.50,107.000000,,2013-07-13 17:01:00,
2013-07-13 13:33:00,71.0,71.0,-100.00,South,189,7.0,14.0,100,0.00,,,0.50,309.000000,,2013-07-13 17:33:00,
2013-07-13 13:43:00,71.0,71.0,-100.00,South,189,7.0,14.0,100,0.00,,,0.50,309.000000,,2013-07-13 17:43:00,
2013-07-13 13:52:00,71.0,71.0,-100.00,South,189,7.0,14.0,100,0.00,,,0.50,309.000000,,2013-07-13 17:52:00,
2013-07-13 14:02:00,71.0,71.0,-100.00,South,189,7.0,14.0,100,0.00,,,0.50,309.000000,,2013-07-13 18:02:00,
2013-07-13 14:32:00,73.0,73.0,-100.00,SSW,201,6.0,14.0,99,0.00,,,0.50,501.000000,,2013-07-13 18:32:00,
2013-07-13 14:44:00,73.0,73.0,-100.00,SSW,201,6.0,14.0,99,0.00,,,0.50,501.000000,,2013-07-13 18:44:00,
2013-07-13 14:53:00,73.0,73.0,-100.00,SSW,201,6.0,14.0,99,0.00,,,0.50,501.000000,,2013-07-13 18:53:00,
2013-07-13 15:02:00,73.0,73.0,-100.00,SSW,201,6.0,14.0,99,0.00,,,0.50,501.000000,,2013-07-13 19:02:00,
2013-07-13 15:32:00,75.0,75.0,-100.00,SSW,199,6.0,9.0,100,0.00,,,0.50,371.000000,,2013-07-13 19:32:00,
2013-07-13 15:44:00,75.0,75.0,-100.00,SSW,199,6.0,9.0,100,0.00,,,0.50,371.000000,,2013-07-13 19:44:00,
2013-07-13 15:52:00,75.0,75.0,-100.00,SSW,199,6.0,9.0,100,0.00,,,0.50,371.000000,,2013-07-13 19:52:00,
2013-07-13 16:01:00,75.0,75.0,-100.00,SSW,199,6.0,9.0,100,0.00,,,0.50,371.000000,,2013-07-13 20:01:00,
2013-07-13 16:33:00,76.0,72.0,-100.00,South,169,6.0,10.0,87,0.00,,,0.50,452.000000,,2013-07-13 20:33:00,
2013-07-13 16:43:00,76.0,72.0,-100.00,South,169,6.0,10.0,87,0.00,,,0.50,452.000000,,2013-07-13 20:43:00,
2013-07-13 16:53:00,76.0,72.0,-100.00,South,169,6.0,10.0,87,0.00,,,0.50,452.000000,,2013-07-13 20:53:00,
2013-07-13 17:02:00,76.0,72.0,-100.00,South,169,6.0,10.0,87,0.00,,,0.50,452.000000,,2013-07-13 21:02:00,
2013-07-13 17:32:00,77.0,73.0,-100.00,South,180,4.0,9.0,88,0.00,,,0.50,372.000000,,2013-07-13 21:32:00,
2013-07-13 17:43:00,77.0,73.0,-100.00,South,180,4.0,9.0,88,0.00,,,0.50,372.000000,,2013-07-13 21:43:00,
2013-07-13 17:53:00,77.0,73.0,-100.00,South,180,4.0,9.0,88,0.00,,,0.50,372.000000,,2013-07-13 21:53:00,
2013-07-13 18:01:00,77.0,73.0,-100.00,South,180,4.0,9.0,88,0.00,,,0.50,372.000000,,2013-07-13 22:01:00,
2013-07-13 18:32:00,76.0,74.0,-100.00,South,188,3.0,6.0,94,0.00,,,0.50,235.000000,,2013-07-13 22:32:00,
2013-07-13 18:43:00,76.0,74.0,-100.00,South,188,3.0,6.0,94,0.00,,,0.50,235.000000,,2013-07-13 22:43:00,
2013-07-13 18:53:00,76.0,74.0,-100.00,South,188,3.0,6.0,94,0.00,,,0.50,235.000000,,2013-07-13 22:53:00,
2013-07-13 19:02:00,76.0,74.0,-100.00,South,188,3.0,6.0,94,0.00,,,0.50,235.000000,,2013-07-13 23:02:00,
2013-07-13 19:32:00,74.0,73.0,-100.00,SE,146,4.0,7.0,98,0.00,,,0.50,118.000000,,2013-07-13 23:32:00,
2013-07-13 19:42:00,74.0,73.0,-100.00,SE,146,4.0,7.0,98,0.00,,,0.50,118.000000,,2013-07-13 23:42:00,
2013-07-13 19:53:00,74.0,73.0,-100.00,SE,146,4.0,7.0,98,0.00,,,0.50,118.000000,,2013-07-13 23:53:00,
2013-07-13 20:01:00,74.0,73.0,-100.00,SE,146,4.0,7.0,98,0.00,,,0.50,118.000000,,2013-07-14 00:01:00,
2013-07-13 20:33:00,72.0,72.0,-100.00,ESE,118,3.0,7.0,100,0.00,,,0.48,52.000000,,2013-07-14 00:33:00,
2013-07-13 20:42:00,72.0,72.0,-100.00,ESE,118,3.0,7.0,100,0.00,,,0.48,52.000000,,2013-07-14 00:42:00,
2013-07-13 20:53:00,72.0,72.0,-100.00,ESE,118,3.0,7.0,100,0.00,,,0.48,52.000000,,2013-07-14 00:53:00,
2013-07-13 21:02:00,72.0,72.0,-100.00,ESE,118,3.0,7.0,100,0.00,,,0.48,52.000000,,2013-07-14 01:02:00,
2013-07-13 21:32:00,71.0,71.0,-100.00,ESE,123,4.0,8.0,100,0.00,,,0.42,11.000000,,2013-07-14 01:32:00,
2013-07-13 21:43:00,71.0,71.0,-100.00,ESE,123,4.0,8.0,100,0.00,,,0.42,11.000000,,2013-07-14 01:43:00,
2013-07-13 21:52:00,71.0,71.0,-100.00,ESE,123,4.0,8.0,100,0.00,,,0.42,11.000000,,2013-07-14 01:52:00,
2013-07-13 22:02:00,71.0,71.0,-100.00,ESE,123,4.0,8.0,100,0.00,,,0.42,11.000000,,2013-07-14 02:02:00,
2013-07-13 22:32:00,71.0,71.0,-100.00,SE,127,5.0,10.0,100,0.00,,,0.39,0.000000,,2013-07-14 02:32:00,
2013-07-13 22:43:00,71.0,71.0,-100.00,SE,127,5.0,10.0,100,0.00,,,0.39,0.000000,,2013-07-14 02:43:00,
2013-07-13 22:53:00,71.0,71.0,-100.00,SE,127,5.0,10.0,100,0.00,,,0.39,0.000000,,2013-07-14 02:53:00,
2013-07-13 23:02:00,71.0,71.0,-100.00,SE,127,5.0,10.0,100,0.00,,,0.39,0.000000,,2013-07-14 03:02:00,
2013-07-13 23:32:00,72.0,72.0,-100.00,SE,139,6.0,11.0,100,0.00,,,0.35,0.000000,,2013-07-14 03:32:00,
2013-07-13 23:43:00,72.0,72.0,-100.00,SE,139,6.0,11.0,100,0.00,,,0.35,0.000000,,2013-07-14 03:43:00,
2013-07-13 23:53:00,72.0,72.0,-100.00,SE,139,6.0,11.0,100,0.00,,,0.35,0.000000,,2013-07-14 03:53:00,